Regional Weather Roundup
Issued by NWS

Home | Current Version | Previous Version | Graphics & Text | Print | Product List | Glossary On
Versions: 1 2 3 4 5 6 7 8 9 10 11 12 13 14 15 16 17 18 19 20 21 22 23 24 25 26 27 28 29 30 31 32 33 34 35 36 37 38 39 40 41 42 43 44 45 46 47 48 49 50
000
ASUS43 KDTX 280310
RWRMI
MICHIGAN HOURLY REGIONAL WEATHER ROUNDUP
NATIONAL WEATHER SERVICE DETROIT/PONTIAC MI
1100 PM EDT SAT AUG 27 2016

NOTE: "FAIR" INDICATES FEW OR NO CLOUDS BELOW 12,000 FEET WITH NO
SIGNIFICANT WEATHER AND/OR OBSTRUCTION TO VISIBILITY.

MIZ047>049-052>055-059>063-066>070-074>076-081>083-280400-
SOUTHEAST LOWER MICHIGAN

CITY           SKY/WX    TMP DP  RH WIND       PRES   REMARKS
ADRIAN         MOCLDY    70  70 100 CALM      30.14R FOG
ALMA           FOG       67  67 100 S5        30.10S VSB 1/4
ANN ARBOR      CLOUDY    71  71 100 CALM      30.13R FOG
BAD AXE        PTCLDY    68  66  94 S6        30.12R
CARO           CLEAR     67  67  99 S3        30.11R
DETROIT CITY   CLEAR     71  71 100 CALM      30.12S
DETROIT        PTCLDY    72  71  97 CALM      30.12S
FLINT          CLOUDY    74  69  85 S8        30.12S
GROSSE ILE     MOCLDY    74  72  91 S9        30.11S
HILLSDALE      CLOUDY    72  71  95 CALM      30.13S FOG
HOWELL         CLOUDY    72  70  95 S5        30.13S

CITY           SKY/WX    TMP DP  RH WIND       PRES   REMARKS
JACKSON        CLOUDY    73  73 100 S6        30.13R
LAMBERTVILLE   CLEAR     72  70  93 CALM      30.13R FOG
LANSING        PTCLDY    72  69  90 S7        30.11S
LAPEER         CLOUDY    70  69  96 SE6       30.13S
MONROE         PTCLDY    72  72  98 S13       30.11S
MT. CLEMENS    PTCLDY    71  71 100 SW3       30.10S
PONTIAC        CLOUDY    71  69  93 S5        30.13R
PORT HURON     CLEAR     68  68 100 CALM      30.13R
TRI CITIES     CLEAR     71  70  96 S7        30.11R
MIDLAND        MOCLDY    67  67 100 CALM      30.09R FOG
TROY           CLOUDY    72  69  91 CALM      30.15R
SAGINAW HB     CLEAR     70  68  94 S6        30.10R
$$
MIZ043>046-050>051-056>058-064>065-071>073-077>080-280400-
SOUTHWEST LOWER MICHIGAN

CITY           SKY/WX    TMP DP  RH WIND       PRES   REMARKS
BATTLE CREEK   PTCLDY    72  72 100 S8        30.11S
BENTON HARBOR  CLEAR     77  72  84 S6        30.08R
BIG RAPIDS     MOCLDY    71  69  94 CALM      30.08S
COLDWATER      CLEAR     71  71  99 SE3       30.12S
FREMONT        MOCLDY    71  70  97 CALM      30.06S
HOLLAND        CLOUDY    74  70  87 S5        30.07F
GRAND RAPIDS   TSTM      73  70  90 SW8       30.09R FOG
IONIA          FAIR      70  69  96 SE6       30.09S
KALAMAZOO      CLEAR     75  70  84 S7        30.10S
LUDINGTON      LGT RAIN  72  71  96 CALM      30.05S
MARSHALL       CLEAR     72  72 100 S3        30.11S
MOUNT PLEASANT CLOUDY    70  69  97 CALM      30.08S
MUSKEGON       MOCLDY    75  70  84 S5        30.06S
SOUTH HAVEN    PTCLDY    77  74  93 SW3       30.07S
$$
MIZ016>042-280400-
NORTHERN LOWER MICHIGAN

CITY           SKY/WX    TMP DP  RH WIND       PRES   REMARKS
ALPENA         CLOUDY    69  66  90 CALM      30.07F
BEAVER ISLAND  CLOUDY    65  65 100 E3        30.03S
BELLAIRE       CLOUDY    72  66  83 S3        30.04S
CADILLAC       CLOUDY    69  67  94 S7        30.08S
CHARLEVOIX     RAIN      69  68  97 CALM      30.06S
FRANKFORT      CLOUDY    70  68  91 W5        30.05R
GAYLORD        CLOUDY    69  65  86 S9        30.07F
GRAYLING       CLOUDY    69  67  94 CALM      30.09S
HARBOR SPRINGS RAIN      68  66  94 CALM      30.04S
HOUGHTON LAKE  CLOUDY    68  67  96 S8        30.10R
MANISTEE       CLOUDY    71  70  96 W7        30.05R
OSCODA         CLOUDY    71  69  93 S6        30.08R
PELLSTON       CLOUDY    67  64  90 SE5       30.05S
ROGERS CITY    CLOUDY    69  66  90 S6        30.07F
TRAVERSE CITY  MOCLDY    72  68  87 CALM      30.02F
$$
MIZ007>008-015-280400-
EASTERN UPPER MICHIGAN

CITY           SKY/WX    TMP DP  RH WIND       PRES   REMARKS
KINROSS        LGT RAIN  65  64  97 SE9       30.05F
MACKINAC ISLAN CLOUDY    66  66 100 SE6       30.04F
NEWBERRY       CLOUDY    62  61  97 CALM      30.04S
S. S. MARIE    LGT RAIN  64  63  96 E5        30.05F FOG
$$
MIZ004>006-011>014-085-280400-
CENTRAL UPPER MICHIGAN

CITY           SKY/WX    TMP DP  RH WIND       PRES   REMARKS
MANISTIQUE     MOCLDY    62  60  93 CALM      30.03S FOG
ESCANABA       CLOUDY    62  62 100 CALM      30.04S
MENOMINEE      CLOUDY   N/A N/A N/A CALM        N/A
SAWYER-GWINN   CLOUDY    62  59  91 S5        30.06S
$$
MIZ001>003-009>011-084-280400-
WESTERN UPPER MICHIGAN

CITY           SKY/WX    TMP DP  RH WIND       PRES   REMARKS
IRON MOUNTAIN  CLOUDY    63  58  83 S5        30.05R
HOUGHTON       CLOUDY    63  61  93 E5        30.04S
IRONWOOD       LGT RAIN  61  60  97 CALM      30.06R
$$

ABBREVIATIONS USED IN REMARKS
   TC - TEMPERATURE IN CELSIUS
  WCI - WIND CHILL INDEX
   HX - HEAT INDEX
  VSB - VISIBILITY





USA.gov is the U.S. government's official web portal to all federal, state and local government web resources and services.